Sarasota, FL

9:06 AM EST on December 08, 2019 (GMT -0500)
Sarasota-bradenton

Weather History for KSRQ - October, 2019

Change the Weather History Date:

Tuesday, October 8, 2019

  Actual Average Record
Temperature  
Mean Temperature 82 °F 78 °F  
Max Temperature 90 °F 87 °F 97 °F (1973)
Min Temperature 73 °F 70 °F 52 °F (1987)
Degree Days  
Heating Degree Days 0 0  
Month to date heating degree days 0 0  
Since 1 July heating degree days 0 0  
Cooling Degree Days 16 13  
Month to date cooling degree days 151 113  
Year to date cooling degree days 3608 2902  
Growing Degree Days 32 (Base 50)    
Moisture  
Dew Point 74 °F    
Average Humidity 75    
Maximum Humidity 100    
Minimum Humidity 55    
Precipitation  
Precipitation 0.00 in 0.12 in 3.40 in (1952)
Month to date precipitation 0.22 1.02  
Year to date precipitation 43.60 46.45  
Sea Level Pressure  
Sea Level Pressure 29.87 in    
Wind  
Wind Speed 5 mph ()    
Max Wind Speed 10 mph    
Max Gust Speed 13 mph    
Visibility 10.0 miles    
Events      
T = Trace of Precipitation, MM = Missing Value Source: Averaged Metar Reports

Daily Weather History Graph

Daily Weather History Graph

Search for Another Location

Airport or City:

Astronomy

Oct. 08, 2019 Rise Set
Actual Time 7:26 AM EDT 7:08 PM EDT
Civil Twilight 7:02 AM EDT 7:32 PM EDT
Nautical Twilight 6:35 AM EDT 7:59 PM EDT
Astronomical Twilight 6:08 AM EDT 8:26 PM EDT
Moon 4:35 PM EDT 2:49 AM EDT
Length of Visible Light 12h 29m
Length of Day
11h 42m
Waxing Gibbous, 77% of the Moon is Illuminated
Oct 8
Waxing Gibbous
Oct 13
Full
Oct 21
Last Quarter
Oct 27
New
Nov 4
First Quarter

Hourly Weather History & Observations

Time (EDT) Temp. Heat Index Dew Point Humidity Pressure Visibility Wind Dir Wind Speed Gust Speed Precip Events Conditions
6:00 AM 75.2 °F - 73.4 °F 94% 29.80 in 10.0 mi SSE 4.6 mph - N/A   Clear
6:53 AM 73.4 °F - 73.4 °F 100% 29.84 in 9.0 mi ENE 4.6 mph - N/A   Scattered Clouds
7:53 AM 75.2 °F - 73.4 °F 94% 29.84 in 10.0 mi NE 4.6 mph - N/A   Mostly Cloudy
8:53 AM 78.8 °F - 73.4 °F 83% 29.86 in 10.0 mi ENE 6.9 mph - N/A   Mostly Cloudy
10:01 AM 80.6 °F 85.4 °F 73.4 °F 79% 29.89 in 10.0 mi East 6.9 mph - N/A   Overcast
11:00 AM 84.2 °F 92.3 °F 75.2 °F 74% 29.90 in 10.0 mi NNE 4.6 mph - N/A   Unknown
11:40 AM 84.2 °F 92.3 °F 75.2 °F 74% 29.90 in 10.0 mi Calm Calm - N/A   Mostly Cloudy
11:53 AM 87.8 °F 97.6 °F 75.2 °F 66% 29.89 in 10.0 mi North - - N/A   Scattered Clouds
12:53 PM 88.0 °F 95.6 °F 73.0 °F 61% 29.88 in 10.0 mi Variable 5.8 mph - N/A   Scattered Clouds
1:03 PM 87.1 °F 94.5 °F 73.0 °F 63% 29.87 in 10.0 mi Variable 3.5 mph - N/A   Overcast
1:15 PM 88.0 °F 96.5 °F 73.9 °F 63% 29.87 in 10.0 mi Variable 5.8 mph - N/A   Mostly Cloudy
1:53 PM 88.0 °F 96.5 °F 73.9 °F 63% 29.85 in 10.0 mi West 5.8 mph - N/A   Clear
2:53 PM 90.0 °F 96.9 °F 72.0 °F 55% 29.84 in 10.0 mi WSW 6.9 mph - N/A   Clear
3:53 PM 86.0 °F 92.2 °F 72.0 °F 63% 29.83 in 10.0 mi SW 8.1 mph - N/A   Clear
4:53 PM 87.1 °F 94.5 °F 73.0 °F 63% 29.83 in 10.0 mi WSW 8.1 mph - N/A   Clear
5:53 PM 87.1 °F 95.4 °F 73.9 °F 65% 29.84 in 10.0 mi SW 8.1 mph - N/A   Clear
6:53 PM 84.0 °F 90.2 °F 73.0 °F 69% 29.85 in 10.0 mi NW 8.1 mph - N/A   Clear
7:53 PM 82.0 °F 87.9 °F 73.9 °F 76% 29.88 in 10.0 mi NNW 4.6 mph - N/A   Partly Cloudy
8:53 PM 80.1 °F 84.5 °F 73.9 °F 81% 29.89 in 10.0 mi ENE 6.9 mph - N/A   Clear
9:53 PM 79.0 °F - 73.0 °F 82% 29.91 in 10.0 mi East 6.9 mph - N/A   Clear
10:53 PM 78.1 °F - 73.9 °F 87% 29.92 in 10.0 mi East 6.9 mph - N/A   Clear
11:53 PM 78.1 °F - 73.9 °F 87% 29.92 in 10.0 mi ENE 4.6 mph - N/A   Clear